Regional Weather Roundup
Issued by NWS

Home | Current Version | Previous Version | Text Only | Print | Product List | Glossary On
Versions: 1 2 3 4 5 6 7 8 9 10 11 12 13 14 15 16 17 18 19 20 21 22 23 24 25 26 27
000
ASUS42 KFFC 291303
RWRGA
WEATHER ROUNDUP FOR GEORGIA
NATIONAL WEATHER SERVICE PEACHTREE CITY GA
900 AM EDT FRI APR 29 2016

NOTE: "FAIR" INDICATES FEW OR NO CLOUDS BELOW 12,000 FEET WITH NO
SIGNIFICANT WEATHER AND/OR OBSTRUCTIONS TO VISIBILITY.

* = USE WITH CAUTION. THE STATIONS MARKED WITH AN ASTERISK MAY NOT
REPORT WEATHER SUCH AS PRECIPITATION, FOG, OR THUNDER AND ARE NOT
QUALITY CONTROLLED BY NWS.

THE REMARK "TC" DENOTES TEMPERATURE READING IN DEGREES CELSIUS.

GAZ001>058-291400-
NORTH GEORGIA

CITY           SKY/WX    TMP DP  RH WIND       PRES   REMARKS
ATLANTA        PTSUNNY   71  57  61 N7        30.03S
ATHENS         SUNNY     69  58  67 NW5       30.02S
CHAMBLEE       CLOUDY    70  60  70 N3        30.04R
PEACHTREE CITY SUNNY     67  63  87 CALM      30.04S
ROME           CLOUDY    61  57  87 NE3       30.03S
WEST ATLANTA   CLOUDY    66  60  81 CALM      30.04R
GAINESVILLE    CLOUDY    70  54  56 N3        30.06S
CARTERSVILLE   CLOUDY    65  60  84 CALM      30.04F


CITY           SKY/WX    TMP DP  RH WIND       PRES   REMARKS
DALTON*        SUNNY     59  59 100 CALM      30.04S
LAWRENCEVILLE* SUNNY     72  57  60 CALM      30.04S
MARIETTA       PTSUNNY   71  60  68 CALM      30.04S
KENNESAW*      SUNNY     68  57  68 CALM      30.02S
CANTON*        CLOUDY    61  52  72 CALM      30.06S
BLAIRSVILLE*     N/A    N/A N/A N/A MISG      30.08S
$$

GAZ059>098-102>109-291400-
CENTRAL GEORGIA

CITY           SKY/WX    TMP DP  RH WIND       PRES   REMARKS
AUGUSTA-BUSH   SUNNY     74  65  73 N7        30.00R
AUGUSTA-DANIEL SUNNY     75  62  64 NW9       30.02R
COLUMBUS       MOSUNNY   70  67  90 CALM      30.01S
MACON          MOSUNNY   68  67  96 CALM      30.02R FOG
ROBINS AFB     PTSUNNY   70  70 100 N2        30.01S FOG


CITY           SKY/WX    TMP DP  RH WIND       PRES   REMARKS
LAGRANGE*      FOG       66  66 100 CALM      30.03S VSB<1/4
SYLVANIA*      SUNNY     72  71  99 NW5       30.01S FOG
MILLEDGEVILLE* SUNNY     72  64  78 CALM      30.02S
$$

GAZ099>101-110>166-291400-
SOUTH GEORGIA

CITY           SKY/WX    TMP DP  RH WIND       PRES   REMARKS
SAVANNAH       MOSUNNY   75  68  78 W9        30.00S
VALDOSTA       MOSUNNY   76  70  82 VRB5      30.02S
ALMA           MOSUNNY   73  71  93 NW6       30.02S
ST SIMONS      CLOUDY    72  71  97 MISG      30.01S
FT STEWART     SUNNY     74  69  82 VRB2      29.98S
ALBANY         SUNNY     72  69  90 CALM      30.04R
HUNTER AFB     SUNNY     75  71  87 NW8       29.97S
MOODY AFB      MOSUNNY   75  69  80 W3        30.01S
BRUNSWICK      CLOUDY    68  64  88 W6        30.02F


CITY           SKY/WX    TMP DP  RH WIND       PRES   REMARKS
BAINBRIDGE*    FOG       72  70  94 CALM      30.02R VSB 1/2
MOULTRIE*      SUNNY     72  68  88 CALM      30.03S
VIDALIA*       MOSUNNY   73  70  88 CALM      30.02S
WAYCROSS*      CLOUDY    73  72  95 CALM      30.02F
DOUGLAS*       PTSUNNY   73  72  94 W3        30.03F
$$




USA.gov is the U.S. government's official web portal to all federal, state and local government web resources and services.